Home   Weather   Puerto Vallarta   Past weeks

Flag for Mexico Past Weather in Puerto Vallarta, Jalisco, Mexico — Yesterday and Last 2 Weeks

Now
75 °F

More clouds than sun.


Feels Like: 76 °F
Forecast: N/A
Wind: No wind

Location: Puerto Vallarta / Lic

Current Time: Feb 19, 2017 at 3:18:22 pm

Latest Report: Feb 19, 2017 at 1:46 pm


Visibility: 15 mi

Pressure: 29.98 "Hg

Humidity: 78%

Dew Point: 68 °F

Location of Puerto VallartaLocation

Past Weather in Puerto Vallarta — Graph

°F

Puerto Vallarta Temperature Yesterday

Maximum temperature yesterday: 84 °F (at 12:41 pm)
Minimum temperature yesterday: 61 °F (at 5:46 am)
Average temperature yesterday: 72 °F

High & Low Weather Summary for the Past Weeks

 TemperatureHumidityPressure
High88 °F (Feb 6, 1:49 pm)100% (Feb 4, 11:49 pm)30.07 "Hg (Feb 4, 11:49 pm)
Low55 °F (Feb 8, 6:44 am)29% (Feb 6, 11:49 am)29.60 "Hg (Feb 14, 2:52 pm)
Average70 °F81%29.94 "Hg
* Reported Feb 4 1:47 pm — Feb 19 1:46 pm, Puerto Vallarta, Weather by CustomWeather, © 2017

Note: Actual official high and low records may vary slightly from our data, if they occured in-between our weather recording intervals... More about our weather records

Advertising

Puerto Vallarta Weather History for the Previous 24 Hours

Scroll right to see more
 ConditionsComfort  
Time TempWeatherWind HumidityBarometerVisibility
1:46 pm
Sun, Feb 19
75 °FMore clouds than sun.No wind78%29.98 "Hg15 mi
12:51 pm73 °FMostly cloudy.6 mph83%29.99 "Hg12 mi
11:49 am73 °FCloudy.7 mph83%30.01 "Hg12 mi
10:50 am72 °FMostly cloudy.5 mph88%30.03 "Hg12 mi
9:55 am68 °FCloudy.3 mph100%30.03 "Hg6 mi
8:49 am66 °FMostly cloudy.5 mph100%30.00 "Hg10 mi
7:58 am66 °FMore clouds than sun.No wind94%29.98 "Hg12 mi
6:49 am66 °FOvercast.3 mph94%29.93 "Hg12 mi
5:53 am68 °FLight rain. Mostly cloudy.3 mph83%29.91 "Hg10 mi
4:43 am70 °FPartly cloudy.6 mph78%29.92 "Hg12 mi
3:46 am70 °FPassing clouds.5 mph73%29.89 "Hg12 mi
2:46 am68 °FPassing clouds.2 mph78%29.89 "Hg12 mi
1:44 am70 °FPassing clouds.2 mph73%29.89 "Hg12 mi
12:43 am70 °FPassing clouds.3 mph78%29.90 "Hg12 mi
11:46 pm
Sat, Feb 18
75 °FPassing clouds.3 mph61%29.89 "Hg12 mi
10:46 pm75 °FPartly cloudy.5 mph65%29.89 "Hg12 mi
9:46 pm73 °FPassing clouds.2 mph69%29.88 "Hg12 mi
8:49 pm73 °FPassing clouds.3 mph69%29.87 "Hg12 mi
7:44 pm77 °FPartly cloudy.3 mph65%29.88 "Hg12 mi
6:52 pm77 °FBroken clouds.No wind65%29.88 "Hg15 mi
5:48 pm77 °FPartly sunny.6 mph69%29.89 "Hg15 mi
4:45 pm77 °FBroken clouds.9 mph69%29.90 "Hg15 mi
3:44 pm79 °FPartly sunny.13 mph65%29.90 "Hg15 mi
Weather by CustomWeather, © 2017

See weather overviewHow to use our weather pages